Location: Carrizalito
(10.3833°N, 67.0217°W)
Time: 07:39:12
(UTC+00:00)

Cosmos 372 Rocket - Visible Passes

Search period start: 26 June 2022 00:00
Search period end: 06 July 2022 00:00
Orbit: 737 x 768 km, 74.1° (Epoch: 25 June)

Date Brightness Start Highest point End Pass type
(mag) Time Alt. Az. Time Alt. Az. Time Alt. Az.
26 Jun 3.9 08:45:31 10° NNW 08:50:43 88° ENE 08:55:54 10° SSE visible
27 Jun 5.4 08:04:19 10° N 08:09:06 37° ENE 08:13:50 10° SE visible
27 Jun 5.7 09:48:19 10° WNW 09:50:25 12° W 09:52:32 10° WSW visible
28 Jun 6.6 07:24:13 10° NE 07:27:24 16° ENE 07:30:34 10° ESE visible
28 Jun 4.7 09:04:28 10° NW 09:08:55 29° W 09:13:21 10° SSW visible
29 Jun 3.8 08:22:13 10° NNW 08:27:23 70° WSW 08:28:43 48° SSW visible
30 Jun 4.8 07:40:46 10° N 07:45:11 47° NE 07:45:11 47° NE visible
01 Jul 6.4 07:00:11 10° NNE 07:02:21 18° NE 07:02:21 18° NE visible
01 Jul 6.1 08:41:37 10° NW 08:42:10 12° NW 08:42:10 12° NW visible
02 Jul 6.2 07:59:01 10° NNW 07:59:45 14° NNW 07:59:45 14° NNW visible
03 Jul 6.6 07:17:18 10° N 07:17:35 12° N 07:17:35 12° N visible
